Location: Brunembert
(50.7122°N, 1.8935°E)
Time: 01:17:54
(UTC+00:00)

Cosmos 1500 Rocket - Pass Details

Date: 01 August 2021
Orbit: 602 x 632 km, 82.5° (Epoch: 18 September)

Event Time Altitude Azimuth Distance (km) Brightness Sun altitude
Exits shadow 23:48:58 - 256° (WSW) 2,438 6.5 -21.5°
Reaches altitude 10° 23:50:58 10° 276° (W) 2,003 6.3 -21.5°
Maximum altitude 23:52:50 12° 301° (WNW) 1,856 6.4 -21.5°
Drops below altitude 10° 23:54:42 10° 326° (NW) 2,016 7.0 -21.5°
Sets 23:58:19 0° 356° (N) 2,935 8.6 -21.5°
